Regional Weather Roundup
Issued by NWS Cleveland, OH

Home | Current Version | Previous Version | Graphics & Text | Print | Product List | Glossary On
Versions: 1 2 3 4 5 6 7 8 9 10 11 12 13 14 15 16 17 18 19 20 21 22 23 24 25 26 27 28 29 30 31 32 33 34 35 36 37 38 39 40 41 42 43 44 45 46 47 48 49 50
000
ASUS41 KCLE 130912
RWRCLE
OHIO REGIONAL WEATHER ROUNDUP
NATIONAL WEATHER SERVICE WILMINGTON, OH
400 AM EST SAT FEB 13 2016

NOTE: "FAIR" INDICATES FEW OR NO CLOUDS BELOW 12,000 FEET WITH NO
SIGNIFICANT WEATHER AND/OR OBSTRUCTIONS TO VISIBILITY.

OHZ001>008-015>018-024>027-034-035-043-044-131000-
   NORTHWEST OHIO

CITY           SKY/WX    TMP DP  RH WIND       PRES   REMARKS
DEFIANCE       FAIR       7  -5  57 NW7       30.40R WCI  -5
FINDLAY        FAIR       7  -2  66 NW13      30.34R WCI  -9
TOLEDO EXPRESS FAIR       5  -9  52 NW9       30.36R WCI  -9
TOLEDO EXEC    FAIR       7  -8  50 NW9       30.37R WCI  -7
LIMA           FAIR       7  -3  64 N10       30.34R WCI  -8
$$

OHZ009>014-019>023-028>033-038-089-131000-
   NORTHEAST OHIO

CITY           SKY/WX    TMP DP  RH WIND       PRES   REMARKS
CLE-HOPKINS    LGT SNOW   8   0  69 NW18G26   30.28R WCI -11
CLE-LAKEFRONT  CLOUDY    12   1  61 NW28G40   30.26R WCI  -9
CUY CO. ARPT   NOT AVBL
LORAIN-ELYRIA  MOCLDY     8  -8  48 N18G28    30.29R WCI -11
ASHTABULA      CLOUDY     9   2  73 NW12G21   30.17R WCI  -6
AKRON-CANTON   FAIR       5  -7  57 NW17G25   30.19R WCI -14
WOOSTER        CLOUDY     6  -1  73 NW10      30.25R WCI  -9
MANSFIELD      FAIR       4  -9  55 NW15      30.24R WCI -14
YOUNGSTOWN     FAIR       6  -5  60 NW16G22   30.16R WCI -12
$$

OHZ042-051>053-060>062-070>072-077>081-131000-
  SOUTHWEST OHIO

CITY           SKY/WX    TMP DP  RH WIND       PRES   REMARKS
CINC-COVINGTON FAIR      14   4  64 NW12      30.38R WCI   0
CINC-LUNKEN    FAIR      15   4  61 NW9G20    30.43R WCI   3
HAMILTON       FAIR      14   3  61 NW9       30.41R WCI   2
DAYTON         LGT SNOW  12   7  80 NW21      30.35R WCI  -7
WRIGHT-PAT AFB LGT SNOW  12   8  83 NW14      30.35R WCI  -3
DAYTON GENERAL CLOUDY    13   3  64 NW10      30.35R WCI   0
WILMINGTON     MOCLDY    12   4  70 NW16G24   30.32R WCI  -5
$$

OHZ036-037-039>041-045>050-054>059-063>069-073>076-082>088-131000-
  CENTRAL AND SOUTHEAST OHIO

CITY           SKY/WX    TMP DP  RH WIND       PRES   REMARKS
COLUMBUS       FAIR      10  -1  61 NW16      30.32R WCI  -7
OSU AIRPORT    FAIR      10   0  63 N16       30.32R WCI  -7
BOLTON FIELD   CLOUDY    11   5  76 N14G20    30.33R WCI  -4
RICKENBACK AFB LGT SNOW  13   7  79 N9        30.32R WCI   0
NEWARK         FAIR      11  -2  56 NW9       30.30R WCI  -2
MARION         FAIR       7  -4  60 N12       30.31R WCI  -8
LANCASTER      FLURRIES  13   5  70 NW10      30.31R WCI   0
ZANESVILLE     LGT SNOW  14   6  70 NW16G25   30.27R WCI  -2
NEW PHILLY     MOCLDY    10   0  63 NW7       30.25R WCI  -1
$$



USA.gov is the U.S. government's official web portal to all federal, state and local government web resources and services.